Location: Bois Neuf
(42.7667°N, 0.6333°E)
Time: 22:04:08
(UTC+00:00)

Cosmos 1937 Rocket - Pass Details

Date: 25 September 2020
Orbit: 747 x 779 km, 74.0° (Epoch: 26 October)

Event Time Altitude Azimuth Distance (km) Brightness Sun altitude
Rises 04:52:16 0° 325° (NW) 3,202 6.5 -11.1°
Reaches altitude 10° 04:55:11 10° 308° (NW) 2,271 5.5 -10.6°
Maximum altitude 04:58:49 20° 263° (W) 1,697 4.7 -9.9°
Drops below altitude 10° 05:02:25 10° 218° (SW) 2,260 5.5 -9.2°
Sets 05:05:20 0° 201° (SSW) 3,182 6.4 -8.7°
